Stündliche Wetter Centralnyy

Heute, 17 Januar, Sonntag

Zeit Temperatur Niederschläge Wind Luftdruck Luftfeuchtigkeit
00:00 -20°C° 0.3 mm 4 m/S 736 mmHg 95%
01:00 -20°C° 0.2 mm 4 m/S 736 mmHg 95%
02:00 -20°C° 0.2 mm 4 m/S 736 mmHg 95%
03:00 -19°C° 0 mm 3 m/S 737 mmHg 96%
04:00 -19°C° 0.2 mm 3 m/S 737 mmHg 96%
05:00 -19°C° 0.2 mm 3 m/S 737 mmHg 96%
06:00 -19°C° 0.2 mm 3 m/S 737 mmHg 96%
07:00 -19°C° 0.1 mm 2 m/S 738 mmHg 96%
08:00 -20°C° 0.1 mm 2 m/S 738 mmHg 96%
09:00 -20°C° 0.1 mm 2 m/S 738 mmHg 96%
10:00 -20°C° 0 mm 2 m/S 739 mmHg 95%
11:00 -20°C° 0 mm 2 m/S 739 mmHg 94%
12:00 -21°C° 0 mm 2 m/S 740 mmHg 94%
13:00 -21°C° 0 mm 2 m/S 740 mmHg 94%
14:00 -21°C° 0 mm 2 m/S 740 mmHg 94%
15:00 -21°C° 0 mm 2 m/S 740 mmHg 94%
16:00 -23°C° 0 mm 2 m/S 740 mmHg 95%
17:00 -21°C° 0 mm 1 m/S 741 mmHg 95%
18:00 -21°C° 0 mm 1 m/S 742 mmHg 96%
19:00 -22°C° 0 mm 1 m/S 742 mmHg 96%
20:00 -25°C° 0 mm 2 m/S 742 mmHg 96%
21:00 -26°C° 0 mm 2 m/S 742 mmHg 96%
22:00 -26°C° 0 mm 2 m/S 742 mmHg 96%
23:00 -24°C° 0 mm 1 m/S 742 mmHg 96%

Morgen, 18 Januar, Montag

Zeit Temperatur Niederschläge Wind Luftdruck Luftfeuchtigkeit
00:00 -24°C° 0 mm 1 m/S 742 mmHg 96%
01:00 -25°C° 0 mm 1 m/S 742 mmHg 97%
02:00 -27°C° 0 mm 1 m/S 743 mmHg 98%
03:00 -26°C° 0 mm 0 m/S 743 mmHg 98%
04:00 -27°C° 0 mm 1 m/S 743 mmHg 98%
05:00 -27°C° 0 mm 1 m/S 742 mmHg 97%
06:00 -27°C° 0 mm 1 m/S 742 mmHg 97%
07:00 -25°C° 0 mm 1 m/S 743 mmHg 97%
08:00 -25°C° 0 mm 1 m/S 743 mmHg 96%
09:00 -24°C° 0 mm 1 m/S 743 mmHg 96%
10:00 -23°C° 0 mm 1 m/S 743 mmHg 95%
11:00 -22°C° 0 mm 1 m/S 743 mmHg 94%
12:00 -21°C° 0 mm 1 m/S 743 mmHg 93%
13:00 -21°C° 0 mm 1 m/S 743 mmHg 93%
14:00 -20°C° 0 mm 0 m/S 743 mmHg 92%
15:00 -20°C° 0 mm 0 m/S 743 mmHg 92%
16:00 -20°C° 0 mm 0 m/S 743 mmHg 93%
17:00 -21°C° 0 mm 1 m/S 743 mmHg 94%
18:00 -21°C° 0 mm 1 m/S 742 mmHg 95%
19:00 -21°C° 0 mm 0 m/S 743 mmHg 95%
20:00 -20°C° 0 mm 0 m/S 743 mmHg 95%
21:00 -20°C° 0 mm 0 m/S 743 mmHg 95%
22:00 -20°C° 0 mm 0 m/S 743 mmHg 95%
23:00 -19°C° 0 mm 1 m/S 743 mmHg 95%

übermorgen, 19 Januar, Dienstag

Zeit Temperatur Niederschläge Wind Luftdruck Luftfeuchtigkeit
00:00 -19°C° 0 mm 1 m/S 743 mmHg 95%
01:00 -19°C° 0 mm 1 m/S 742 mmHg 95%
02:00 -19°C° 0 mm 1 m/S 742 mmHg 95%
03:00 -19°C° 0 mm 1 m/S 742 mmHg 95%
04:00 -19°C° 0.1 mm 1 m/S 742 mmHg 95%
05:00 -19°C° 0.1 mm 1 m/S 742 mmHg 95%
06:00 -18°C° 0.1 mm 1 m/S 742 mmHg 95%
07:00 -18°C° 0 mm 1 m/S 742 mmHg 95%
08:00 -18°C° 0 mm 1 m/S 742 mmHg 95%
09:00 -18°C° 0 mm 1 m/S 742 mmHg 95%
10:00 -18°C° 0 mm 1 m/S 742 mmHg 93%
11:00 -17°C° 0 mm 1 m/S 742 mmHg 92%
12:00 -17°C° 0 mm 1 m/S 742 mmHg 91%
13:00 -18°C° 0 mm 2 m/S 741 mmHg 91%
14:00 -18°C° 0 mm 2 m/S 741 mmHg 92%
15:00 -18°C° 0 mm 2 m/S 741 mmHg 92%
16:00 -18°C° 0 mm 2 m/S 741 mmHg 93%
17:00 -19°C° 0 mm 2 m/S 741 mmHg 94%
18:00 -19°C° 0 mm 2 m/S 741 mmHg 96%
19:00 -19°C° 0 mm 2 m/S 741 mmHg 96%
20:00 -20°C° 0 mm 2 m/S 742 mmHg 96%
21:00 -20°C° 0 mm 2 m/S 742 mmHg 96%
22:00 -20°C° 0 mm 2 m/S 742 mmHg 96%
23:00 -19°C° 0 mm 2 m/S 742 mmHg 96%

20 Januar, Mittwoch

Zeit Temperatur Niederschläge Wind Luftdruck Luftfeuchtigkeit
00:00 -19°C° 0 mm 2 m/S 742 mmHg 96%
01:00 -20°C° 0 mm 2 m/S 742 mmHg 97%
02:00 -20°C° 0 mm 2 m/S 743 mmHg 97%
03:00 -21°C° 0 mm 2 m/S 743 mmHg 98%
04:00 -21°C° 0 mm 2 m/S 743 mmHg 98%
05:00 -21°C° 0 mm 2 m/S 743 mmHg 98%
06:00 -21°C° 0 mm 2 m/S 743 mmHg 98%
07:00 -21°C° 0 mm 2 m/S 744 mmHg 98%
08:00 -21°C° 0 mm 2 m/S 744 mmHg 98%
09:00 -21°C° 0 mm 2 m/S 744 mmHg 98%
10:00 -20°C° 0 mm 2 m/S 745 mmHg 97%
11:00 -19°C° 0 mm 2 m/S 745 mmHg 96%
12:00 -18°C° 0 mm 2 m/S 745 mmHg 96%
13:00 -17°C° 0 mm 2 m/S 745 mmHg 95%
14:00 -17°C° 0 mm 2 m/S 745 mmHg 95%
15:00 -17°C° 0 mm 2 m/S 745 mmHg 95%
16:00 -18°C° 0 mm 2 m/S 746 mmHg 95%
17:00 -19°C° 0 mm 2 m/S 746 mmHg 96%
18:00 -20°C° 0 mm 2 m/S 746 mmHg 96%
19:00 -20°C° 0 mm 2 m/S 746 mmHg 96%
20:00 -20°C° 0 mm 2 m/S 746 mmHg 97%
21:00 -20°C° 0 mm 2 m/S 747 mmHg 97%
22:00 -22°C° 0 mm 3 m/S 747 mmHg 97%
23:00 -22°C° 0 mm 3 m/S 746 mmHg 97%

21 Januar, Donnerstag

Zeit Temperatur Niederschläge Wind Luftdruck Luftfeuchtigkeit
00:00 -22°C° 0 mm 3 m/S 746 mmHg 97%
01:00 -22°C° 0 mm 3 m/S 746 mmHg 96%
02:00 -22°C° 0 mm 3 m/S 746 mmHg 96%
03:00 -22°C° 0 mm 3 m/S 746 mmHg 95%
04:00 -22°C° 0 mm 3 m/S 746 mmHg 93%
05:00 -22°C° 0 mm 3 m/S 746 mmHg 91%
06:00 -22°C° 0 mm 3 m/S 745 mmHg 89%
07:00 -22°C° 0 mm 4 m/S 745 mmHg 89%
08:00 -20°C° 0 mm 4 m/S 745 mmHg 88%
09:00 -20°C° 0 mm 5 m/S 745 mmHg 88%
10:00 -18°C° 0.1 mm 5 m/S 744 mmHg 90%
11:00 -17°C° 0.1 mm 6 m/S 744 mmHg 92%
12:00 -15°C° 0.1 mm 6 m/S 744 mmHg 94%
13:00 -15°C° 0.3 mm 6 m/S 743 mmHg 94%
14:00 -14°C° 0.3 mm 6 m/S 742 mmHg 94%
15:00 -12°C° 0.3 mm 6 m/S 742 mmHg 93%
16:00 -12°C° 0.2 mm 6 m/S 742 mmHg 93%
17:00 -11°C° 0.2 mm 5 m/S 742 mmHg 94%
18:00 -11°C° 0.2 mm 5 m/S 742 mmHg 94%
19:00 -10°C° 0 mm 4 m/S 741 mmHg 94%
20:00 -10°C° 0 mm 4 m/S 741 mmHg 94%
21:00 -9°C° 0 mm 4 m/S 741 mmHg 94%
22:00 -9°C° 0.1 mm 4 m/S 741 mmHg 94%
23:00 -8°C° 0.1 mm 4 m/S 741 mmHg 95%

22 Januar, Freitag

Zeit Temperatur Niederschläge Wind Luftdruck Luftfeuchtigkeit
00:00 -7°C° 0.1 mm 4 m/S 741 mmHg 95%
01:00 -5°C° 0.1 mm 4 m/S 741 mmHg 95%
02:00 -4°C° 0.1 mm 4 m/S 741 mmHg 95%
03:00 -4°C° 0.1 mm 5 m/S 741 mmHg 96%
04:00 -4°C° 0 mm 5 m/S 741 mmHg 95%
05:00 -4°C° 0 mm 5 m/S 741 mmHg 94%
06:00 -2°C° 0 mm 5 m/S 740 mmHg 94%
07:00 -2°C° 0 mm 5 m/S 740 mmHg 94%
08:00 -2°C° 0 mm 5 m/S 741 mmHg 93%
09:00 -2°C° 0 mm 5 m/S 741 mmHg 93%
10:00 -2°C° 0 mm 5 m/S 741 mmHg 94%
11:00 -2°C° 0 mm 5 m/S 740 mmHg 95%
12:00 -3°C° 0 mm 6 m/S 740 mmHg 95%
13:00 -3°C° 0 mm 6 m/S 740 mmHg 95%
14:00 -3°C° 0 mm 6 m/S 740 mmHg 95%
15:00 -3°C° 0 mm 6 m/S 740 mmHg 95%
16:00 -2°C° 0 mm 5 m/S 740 mmHg 96%
17:00 -2°C° 0 mm 5 m/S 740 mmHg 96%
18:00 -2°C° 0 mm 5 m/S 740 mmHg 97%
19:00 -2°C° 0.1 mm 5 m/S 739 mmHg 96%
20:00 -2°C° 0.1 mm 5 m/S 739 mmHg 96%
21:00 -2°C° 0.1 mm 4 m/S 739 mmHg 96%
22:00 -2°C° 0 mm 4 m/S 739 mmHg 96%
23:00 -2°C° 0 mm 4 m/S 739 mmHg 95%
Mehr zeigen

Wir brauchen deine Erlaubnis

Meteoprog und unser Service Anbieter werden persönliche Daten aufbewahren, so wie Cookies, Geräte Bezeichnung oder ähnliche Technologien von deinem Gerät und Prozess, so wie Persönliche Daten Inhalte und Werbungen, genauso wie social Media und den Verkehr zu analysieren.

  • Aufbewahrung und/oder Zugang zu deiner Geräte Informationen.

    Cookies, Geräte Bezeichnung oder andere Informationen, können aufbewahrt oder Zugang zu deinem Gerät erhalten, für den Grund, der oben angegeben wird.

  • Personalisierte Werbung und Inhalte, Messungen, Einblick in das Publikum und Produkt Entwicklung.

    Werbungen und Inhalte können personalisiert werden, basierend auf ein Profil. Mehr Daten können besser personalisierte Werbungen und Inhalte hinzufügen. Werbung und Inhalte können gezeigt und gemessen werden. Einblicke über das Publikum, welche die Werbung gesehen haben und den Inhalt, können abgeleitet werden. So wie Daten können genutzt werden, um es zu verbessern oder die Benutzer Erfahrung zu verbessern das System und die Software.

Wenn du “Ich stimme zu” klickst, erlaubst du uns, die Cookies zu benutzen die Geräte Bezeichnung, den Web oder ähnliche Technologien zu benutzen. Deine Settings, können in deinem Gerät bei deinem Browser geändert werden.

Für den bestimmten Zweck, berechtigten Interessen beruhen darauf, mehr als auf den Inhalt. Du kannst mehr darüber in unseren Privaten und Cookie Politik lesen.